Volver al catálogo

FENGYUN 1C DEB

ActivoSSO
NORAD 31821·DEBRIS·🇨🇳 China

Lanzado May 10, 1999 desde Taiyuan Satellite Launch Center

Loading…

Próximos Pases (próximas 24 horas)

TLE

ActualizadoSource: Space-Track

Época: Sep 11, 2026, 02:42 UTC

1 31821U 99025CHK 26254.11294318  .00008753  00000-0  17521-2 0  9999
2 31821  98.1463 134.3026 0189969 261.6426  96.3193 14.51197714976009

Sigue FENGYUN 1C DEB en tiempo real con AllMySat

Download on the App Store